Location: Unspecified
(39.6110°N, 77.4038°W)
Time: 16:59:30
(UTC-04:00)

Envisat - Visible Passes

Search period start: 17 May 2026 00:00
Search period end: 27 May 2026 00:00
Orbit: 761 x 762 km, 98.4° (Epoch: 17 May)

Date Brightness Start Highest point End Pass type
(mag) Time Alt. Az. Time Alt. Az. Time Alt. Az.
17 May 3.0 03:40:53 10° NNE 03:45:58 75° ESE 03:48:18 33° S visible
17 May 5.0 05:21:52 10° NNW 05:24:13 13° WNW 05:26:35 10° W visible
18 May 4.4 03:03:31 10° NE 03:08:02 32° E 03:10:05 23° SE visible
18 May 4.1 04:42:31 10° N 04:46:50 29° WNW 04:50:13 15° WSW visible
19 May 5.3 02:27:25 10° ENE 02:29:53 13° E 02:31:52 11° ESE visible
19 May 3.0 04:04:13 10° N 04:09:14 66° WNW 04:11:59 27° SSW visible
20 May 3.5 03:26:27 10° NNE 03:31:26 54° E 03:33:46 29° SSE visible
20 May 4.7 05:06:32 10° NNW 05:09:54 18° WNW 05:13:14 10° WSW visible
21 May 4.8 02:49:25 10° NE 02:53:25 23° E 02:55:32 18° SE visible
21 May 3.7 04:27:44 10° N 04:32:25 39° WNW 04:35:40 18° SW visible
22 May 2.9 03:49:39 10° NNE 03:54:45 90° W 03:57:27 28° SSW visible
23 May 4.0 03:12:08 10° NNE 03:16:52 38° E 03:19:13 25° SSE visible
23 May 4.3 04:51:32 10° NNW 04:55:32 24° WNW 04:59:20 11° WSW visible
24 May 5.2 02:35:33 10° NE 02:38:45 17° E 02:40:59 13° ESE visible
24 May 3.2 04:13:03 10° N 04:17:59 54° WNW 04:21:06 22° SW visible
25 May 3.2 03:35:10 10° NNE 03:40:13 66° ESE 03:42:52 28° S visible
25 May 4.9 05:15:45 10° NNW 05:18:34 15° WNW 05:21:22 10° W visible
26 May 4.5 02:57:55 10° NE 03:02:15 28° E 03:04:38 20° SE visible
26 May 3.9 04:36:40 10° N 04:41:09 32° WNW 04:44:46 14° SW visible
